Overview Statistics Trail Chart Weather Telemetry Raw packets
 

This is the latest recevied weather packets stored in our database for station/object HB9FHL-13. If no packets are shown the sender has not sent any weather packets the latest 10 day(s).

<< 101 102 103 104 105 106 107 >>
Time Temp. Humidity Pressure Rain* Wind** Luminosity Snow
1788023050 21.11° C - 1015.4 hPa 0 mm - - -
1788022812 21.67° C - 1018.6 hPa 0 mm - - -
1788022751 21.67° C - 1018.6 hPa 0 mm - - -
1788022452 21.67° C - 1014.2 hPa 0 mm - - -
1788022449 21.67° C - 1014.2 hPa 0 mm - - -
1788022149 21.67° C - 1014.4 hPa 0 mm - - -
1788021850 21.11° C - 1015.9 hPa 0 mm - - -
1788021847 21.11° C - 1015.9 hPa 0 mm - - -
1788021549 22.22° C - 1018.3 hPa 0 mm - - -
1788021546 22.22° C - 1018.3 hPa 0 mm - - -
1788021246 22.22° C - 1019.8 hPa 0 mm - - -
1788021242 22.22° C - 1019.8 hPa 0 mm - - -
1788020941 22.22° C - 1015.8 hPa 0 mm - - -
1788020644 21.11° C - 1016.5 hPa 0 mm - - -
1788020641 21.11° C - 1016.5 hPa 0 mm - - -
1788020340 22.22° C - 1015.8 hPa 0 mm - - -
1788020040 21.11° C - 1015.7 hPa 0 mm - - -
1788019743 21.67° C - 1013.9 hPa 0 mm - - -
1788019739 21.67° C - 1013.9 hPa 0 mm - - -
1788019445 21.11° C - 1016.2 hPa 0 mm - - -
1788019439 21.11° C - 1016.2 hPa 0 mm - - -
1788019142 20.56° C - 1015 hPa 0 mm - - -
1788019138 20.56° C - 1015 hPa 0 mm - - -
1788018838 21.11° C - 1016.8 hPa 0 mm - - -
1788018537 21.11° C - 1015.9 hPa 0 mm - - -

* Rain since midnight (hover to see other rain measurements)
** Current wind speed in m/s (hover to see current wind gust speed)